GW2593 Weather Reports


Display with metric or nautical units.
time (UTC)temp
F
wind
direction
speed
MPH
gust
MPH
rain 1hr
in
rain 24hr
in
rain mn
in
humidity
%
barometer
mb
20260906105751 74 348 2.0 2.0 0.00 0.00 0.00 93 1012.5
20260906102747 74 330 1.0 2.0 0.00 0.00 0.00 93 1012.0
20260906095744 74 3 1.0 1.0 0.00 0.00 0.00 93 1011.8
20260906092743 74 13 0.0 1.0 0.00 0.00 0.00 93 1011.7
20260906085742 74 15 1.0 1.0 0.00 0.00 0.00 92 1011.6
20260906082739 75 19 1.0 1.0 0.00 0.00 0.00 92 1011.8
20260906075735 76 349 1.0 1.0 0.00 0.00 0.00 92 1011.6
20260906072732 76 310 0.0 0.0 0.00 0.00 0.00 92 1011.7
20260906065732 76 357 2.0 2.0 0.00 0.00 0.00 91 1012.0
20260906062727 76 324 1.0 1.0 0.00 0.00 0.00 91 1012.0
20260906055725 77 326 3.0 2.0 0.00 0.00 0.00 89 1012.0
20260906052720 77 347 3.0 3.0 0.00 0.00 0.00 89 1012.2
20260906045719 77 316 3.0 3.0 0.00 0.00 0.00 88 1011.7
20260906042714 79 351 3.0 3.0 0.00 0.00 0.00 84 1012.4
20260906035714 79 215 3.0 3.0 0.00 0.09 0.09 83 1013.0
20260906032709 79 130 3.0 3.0 0.00 0.09 0.09 83 1012.9
20260906025705 78 110 1.0 2.0 0.00 0.09 0.09 82 1013.1
20260906022701 78 117 5.0 6.0 0.00 0.09 0.09 83 1013.1
20260906015659 78 50 4.0 6.0 0.00 0.09 0.09 84 1013.6
20260906012657 76 146 3.0 3.0 0.00 0.09 0.09 89 1013.5
20260906005656 77 64 1.0 1.0 0.00 0.09 0.09 87 1012.8
20260906002653 76 2 0.0 0.0 0.00 0.09 0.09 85 1012.5
20260905235651 76 240 1.0 1.0 0.00 0.09 0.09 84 1012.1
20260905232650 76 189 0.0 1.0 0.00 0.09 0.09 87 1013.5
20260905225647 83 2 12.0 15.0 0.00 0.00 0.00 73 1013.6
20260905222642 86 204 5.0 7.0 0.00 0.00 0.00 82 1011.2
20260905215637 87 217 6.0 7.0 0.00 0.00 0.00 81 1010.9
20260905212632 89 195 5.0 6.0 0.00 0.00 0.00 77 1011.1
20260905205630 89 198 4.0 5.0 0.00 0.00 0.00 78 1011.1
20260905202627 89 198 7.0 8.0 0.00 0.00 0.00 77 1010.8
20260905195624 90 160 4.0 7.0 0.00 0.00 0.00 76 1011.2
20260905192622 90 243 8.0 9.0 0.00 0.00 0.00 74 1011.5
20260905185619 90 146 5.0 7.0 0.00 0.00 0.00 75 1012.2
20260905182619 91 177 7.0 9.0 0.00 0.00 0.00 73 1012.7
20260905175614 91 213 2.0 3.0 0.00 0.00 0.00 72 1013.0
20260905172614 90 222 5.0 7.0 0.00 0.00 0.00 73 1013.2
20260905165611 90 196 5.0 8.0 0.00 0.00 0.00 72 1013.7
20260905162607 90 214 5.0 6.0 0.00 0.00 0.00 73 1014.1
20260905155603 89 278 4.0 6.0 0.00 0.00 0.00 75 1014.3
20260905152601 88 217 5.0 7.0 0.00 0.00 0.00 76 1014.7
20260905145556 88 248 3.0 5.0 0.00 0.00 0.00 76 1014.8
20260905142555 87 254 5.0 6.0 0.00 0.00 0.00 74 1014.8
20260905135553 87 209 3.0 3.0 0.00 0.00 0.00 75 1015.1
20260905132548 85 266 4.0 5.0 0.00 0.00 0.00 80 1015.1
20260905125545 83 277 4.0 6.0 0.00 0.00 0.00 85 1015.2
20260905122542 81 291 3.0 5.0 0.00 0.00 0.00 88 1015.1
20260905115537 80 266 1.0 1.0 0.00 0.00 0.00 90 1014.8